| time (UTC) | temp F | wind direction | speed MPH | gust MPH | rain 1hr in | rain 24hr in | rain mn in | humidity % | barometer mb |
| 20260902082507 | 64 | 304 | 4.0 | 5.0 | 0.00 | 0.00 | 0.00 | 74 | 1025.8 |
| 20260902082005 | 64 | 299 | 3.0 | 5.0 | 0.00 | 0.00 | 0.00 | 73 | 1025.7 |
| 20260902081504 | 64 | 304 | 4.0 | 5.0 | 0.00 | 0.00 | 0.00 | 74 | 1025.8 |
| 20260902081003 | 63 | 298 | 1.0 | 5.0 | 0.00 | 0.00 | 0.00 | 74 | 1025.7 |
| 20260902080503 | 63 | 319 | 0.0 | 0.0 | 0.00 | 0.00 | 0.00 | 74 | 1025.7 |
| 20260902080002 | 62 | 309 | 0.0 | 8.0 | 0.00 | 0.00 | 0.00 | 75 | 1025.8 |
| 20260902075502 | 62 | 309 | 4.0 | 8.0 | 0.00 | 0.00 | 0.00 | 75 | 1025.8 |
| 20260902075104 | 62 | 304 | 4.0 | 6.0 | 0.00 | 0.00 | 0.00 | 74 | 1025.9 |
| 20260902074559 | 62 | 309 | 4.0 | 9.0 | 0.00 | 0.00 | 0.00 | 76 | 1025.8 |
| 20260902074056 | 62 | 309 | 4.0 | 9.0 | 0.00 | 0.00 | 0.00 | 74 | 1025.9 |
| 20260902073555 | 62 | 309 | 4.0 | 8.0 | 0.00 | 0.00 | 0.00 | 75 | 1025.8 |
| 20260902073055 | 63 | 285 | 2.0 | 4.0 | 0.00 | 0.00 | 0.00 | 76 | 1025.8 |
| 20260902072553 | 63 | 278 | 0.0 | 3.0 | 0.00 | 0.00 | 0.00 | 75 | 1025.8 |
| 20260902072052 | 62 | 158 | 0.0 | 2.0 | 0.00 | 0.00 | 0.00 | 78 | 1025.8 |
| 20260902071551 | 62 | 158 | 0.0 | 2.0 | 0.00 | 0.00 | 0.00 | 78 | 1025.8 |
| 20260902071050 | 62 | 158 | 0.0 | 0.0 | 0.00 | 0.00 | 0.00 | 80 | 1025.8 |
| 20260902070548 | 61 | 158 | 0.0 | 0.0 | 0.00 | 0.00 | 0.00 | 79 | 1025.8 |
| 20260902070047 | 61 | 158 | 0.0 | 0.0 | 0.00 | 0.00 | 0.00 | 80 | 1025.9 |
| 20260902065545 | 60 | 158 | 0.0 | 0.0 | 0.00 | 0.00 | 0.00 | 80 | 1025.9 |
| 20260902065045 | 60 | 158 | 0.0 | 0.0 | 0.00 | 0.00 | 0.00 | 81 | 1025.9 |
| 20260902064546 | 60 | 158 | 0.0 | 0.0 | 0.00 | 0.00 | 0.00 | 80 | 1025.9 |
| 20260902064041 | 59 | 158 | 0.0 | 1.0 | 0.00 | 0.00 | 0.00 | 81 | 1025.9 |
| 20260902063543 | 60 | 158 | 0.0 | 1.0 | 0.00 | 0.00 | 0.00 | 80 | 1025.9 |
| 20260902063038 | 59 | 158 | 0.0 | 0.0 | 0.00 | 0.00 | 0.00 | 81 | 1025.9 |
| 20260902062537 | 59 | 158 | 0.0 | 0.0 | 0.00 | 0.00 | 0.00 | 80 | 1026.0 |
| 20260902062037 | 59 | 158 | 0.0 | 0.0 | 0.00 | 0.00 | 0.00 | 81 | 1026.0 |
| 20260902061536 | 58 | 158 | 0.0 | 0.0 | 0.00 | 0.00 | 0.00 | 82 | 1026.0 |
| 20260902061034 | 58 | 158 | 0.0 | 0.0 | 0.00 | 0.00 | 0.00 | 84 | 1026.0 |
| 20260902060532 | 57 | 158 | 0.0 | 0.0 | 0.00 | 0.00 | 0.00 | 84 | 1026.0 |
| 20260902060032 | 57 | 158 | 0.0 | 0.0 | 0.00 | 0.00 | 0.00 | 85 | 1026.1 |
| 20260902055531 | 57 | 158 | 0.0 | 0.0 | 0.00 | 0.00 | 0.00 | 86 | 1026.1 |
| 20260902055031 | 56 | 158 | 0.0 | 0.0 | 0.00 | 0.00 | 0.00 | 88 | 1026.0 |
| 20260902054532 | 56 | 158 | 0.0 | 0.0 | 0.00 | 0.00 | 0.00 | 88 | 1026.1 |
| 20260902054028 | 55 | 158 | 0.0 | 0.0 | 0.00 | 0.00 | 0.00 | 87 | 1026.1 |
| 20260902053528 | 55 | 158 | 0.0 | 0.0 | 0.00 | 0.00 | 0.00 | 88 | 1026.1 |
| 20260902053026 | 55 | 158 | 0.0 | 0.0 | 0.00 | 0.00 | 0.00 | 89 | 1026.1 |
| 20260902052523 | 54 | 158 | 0.0 | 0.0 | 0.00 | 0.00 | 0.00 | 89 | 1026.0 |
| 20260902052022 | 54 | 158 | 0.0 | 0.0 | 0.00 | 0.00 | 0.00 | 89 | 1026.0 |
| 20260902051525 | 54 | 158 | 0.0 | 0.0 | 0.00 | 0.00 | 0.00 | 89 | 1025.9 |
| 20260902051020 | 54 | 158 | 0.0 | 0.0 | 0.00 | 0.00 | 0.00 | 90 | 1025.9 |
| 20260902050521 | 54 | 158 | 0.0 | 0.0 | 0.00 | 0.00 | 0.00 | 90 | 1025.8 |
| 20260902050020 | 53 | 158 | 0.0 | 0.0 | 0.00 | 0.00 | 0.00 | 91 | 1025.8 |
| 20260902045518 | 53 | 158 | 0.0 | 0.0 | 0.00 | 0.00 | 0.00 | 91 | 1025.8 |
| 20260902045018 | 53 | 158 | 0.0 | 0.0 | 0.00 | 0.00 | 0.00 | 91 | 1025.8 |
| 20260902044518 | 53 | 158 | 0.0 | 0.0 | 0.00 | 0.00 | 0.00 | 90 | 1025.8 |
| 20260902044017 | 53 | 158 | 0.0 | 0.0 | 0.00 | 0.00 | 0.00 | 90 | 1025.8 |
| 20260902043517 | 53 | 158 | 0.0 | 0.0 | 0.00 | 0.00 | 0.00 | 91 | 1025.8 |
| 20260902043015 | 53 | 158 | 0.0 | 0.0 | 0.00 | 0.00 | 0.00 | 90 | 1025.7 |
| 20260902042515 | 53 | 158 | 0.0 | 0.0 | 0.00 | 0.00 | 0.00 | 90 | 1025.7 |
| 20260902042016 | 53 | 158 | 0.0 | 0.0 | 0.00 | 0.00 | 0.00 | 90 | 1025.6 |
| 20260902041514 | 53 | 158 | 0.0 | 0.0 | 0.00 | 0.00 | 0.00 | 90 | 1025.6 |
| 20260902041013 | 54 | 158 | 0.0 | 0.0 | 0.00 | 0.00 | 0.00 | 89 | 1025.6 |
| 20260902040514 | 54 | 158 | 0.0 | 0.0 | 0.00 | 0.00 | 0.00 | 89 | 1025.5 |
| 20260902040012 | 54 | 158 | 0.0 | 0.0 | 0.00 | 0.00 | 0.00 | 89 | 1025.5 |
| 20260902035512 | 54 | 158 | 0.0 | 0.0 | 0.00 | 0.01 | 0.00 | 89 | 1025.4 |
| 20260902035012 | 54 | 158 | 0.0 | 0.0 | 0.00 | 0.01 | 0.00 | 89 | 1025.4 |
| 20260902034511 | 54 | 158 | 0.0 | 0.0 | 0.00 | 0.01 | 0.00 | 89 | 1025.4 |
| 20260902034009 | 54 | 158 | 0.0 | 0.0 | 0.00 | 0.01 | 0.00 | 88 | 1025.5 |
| 20260902033512 | 54 | 158 | 0.0 | 0.0 | 0.00 | 0.01 | 0.00 | 88 | 1025.5 |
| 20260902033009 | 55 | 158 | 0.0 | 0.0 | 0.00 | 0.01 | 0.00 | 88 | 1025.5 |
| 20260902032510 | 55 | 158 | 0.0 | 0.0 | 0.00 | 0.01 | 0.00 | 88 | 1025.5 |
| 20260902032008 | 54 | 158 | 0.0 | 0.0 | 0.00 | 0.01 | 0.00 | 88 | 1025.5 |
| 20260902031508 | 54 | 158 | 0.0 | 0.0 | 0.00 | 0.01 | 0.00 | 88 | 1025.5 |
| 20260902031007 | 55 | 158 | 0.0 | 0.0 | 0.00 | 0.01 | 0.00 | 88 | 1025.6 |
| 20260902030506 | 55 | 158 | 0.0 | 0.0 | 0.00 | 0.01 | 0.00 | 88 | 1025.6 |
| 20260902030007 | 55 | 158 | 0.0 | 0.0 | 0.00 | 0.01 | 0.00 | 87 | 1025.6 |
| 20260902025506 | 55 | 158 | 0.0 | 0.0 | 0.00 | 0.01 | 0.00 | 87 | 1025.7 |
| 20260902025006 | 55 | 158 | 0.0 | 0.0 | 0.00 | 0.01 | 0.00 | 87 | 1025.6 |
| 20260902024505 | 55 | 158 | 0.0 | 0.0 | 0.00 | 0.01 | 0.00 | 88 | 1025.6 |
| 20260902024004 | 55 | 158 | 0.0 | 0.0 | 0.00 | 0.01 | 0.00 | 87 | 1025.6 |
| 20260902023503 | 55 | 158 | 0.0 | 0.0 | 0.00 | 0.01 | 0.00 | 86 | 1025.6 |
| 20260902023009 | 55 | 158 | 0.0 | 1.0 | 0.00 | 0.01 | 0.00 | 86 | 1025.6 |
| 20260902022502 | 56 | 158 | 0.0 | 1.0 | 0.00 | 0.01 | 0.00 | 85 | 1025.7 |
| 20260902022005 | 56 | 158 | 0.0 | 3.0 | 0.00 | 0.01 | 0.00 | 85 | 1025.6 |
| 20260902021507 | 56 | 158 | 1.0 | 3.0 | 0.00 | 0.01 | 0.00 | 86 | 1025.6 |
| 20260902021004 | 56 | 158 | 1.0 | 3.0 | 0.00 | 0.01 | 0.00 | 86 | 1025.7 |
| 20260902020602 | 56 | 158 | 2.0 | 3.0 | 0.00 | 0.01 | 0.00 | 86 | 1025.7 |
| 20260902020003 | 56 | 186 | 1.0 | 3.0 | 0.00 | 0.01 | 0.00 | 86 | 1025.7 |
| 20260902015601 | 55 | 283 | 0.0 | 0.0 | 0.00 | 0.01 | 0.00 | 86 | 1025.7 |
| 20260902015100 | 56 | 283 | 0.0 | 0.0 | 0.00 | 0.01 | 0.00 | 85 | 1025.7 |
| 20260902014600 | 56 | 283 | 0.0 | 0.0 | 0.00 | 0.01 | 0.00 | 85 | 1025.7 |
| 20260902014100 | 56 | 283 | 0.0 | 0.0 | 0.00 | 0.01 | 0.00 | 85 | 1025.8 |
| 20260902013559 | 56 | 283 | 0.0 | 0.0 | 0.00 | 0.01 | 0.00 | 85 | 1025.8 |
| 20260902013059 | 56 | 283 | 0.0 | 0.0 | 0.00 | 0.01 | 0.00 | 85 | 1025.8 |
| 20260902012558 | 56 | 283 | 0.0 | 0.0 | 0.00 | 0.01 | 0.00 | 85 | 1025.8 |
| 20260902012059 | 56 | 283 | 0.0 | 0.0 | 0.00 | 0.01 | 0.00 | 85 | 1025.8 |
| 20260902011557 | 56 | 283 | 0.0 | 0.0 | 0.00 | 0.01 | 0.00 | 85 | 1025.8 |
| 20260902011057 | 56 | 283 | 0.0 | 0.0 | 0.00 | 0.01 | 0.00 | 85 | 1025.8 |
| 20260902010556 | 56 | 283 | 0.0 | 0.0 | 0.00 | 0.01 | 0.00 | 85 | 1025.8 |
| 20260902010056 | 56 | 283 | 0.0 | 0.0 | 0.00 | 0.01 | 0.00 | 84 | 1025.8 |
| 20260902005556 | 56 | 283 | 0.0 | 2.0 | 0.00 | 0.01 | 0.00 | 84 | 1025.9 |
| 20260902005101 | 56 | 283 | 0.0 | 2.0 | 0.00 | 0.01 | 0.00 | 84 | 1025.8 |
| 20260902004556 | 56 | 283 | 0.0 | 2.0 | 0.00 | 0.01 | 0.00 | 84 | 1025.8 |
| 20260902004054 | 56 | 283 | 0.0 | 2.0 | 0.00 | 0.01 | 0.00 | 84 | 1025.8 |
| 20260902003555 | 56 | 283 | 1.0 | 2.0 | 0.00 | 0.01 | 0.00 | 83 | 1025.8 |
| 20260902003058 | 57 | 283 | 0.0 | 0.0 | 0.00 | 0.01 | 0.00 | 83 | 1025.9 |
| 20260902002556 | 57 | 283 | 0.0 | 0.0 | 0.00 | 0.01 | 0.00 | 83 | 1025.8 |
| 20260902002053 | 57 | 283 | 0.0 | 0.0 | 0.00 | 0.01 | 0.00 | 83 | 1025.8 |
| 20260902001553 | 57 | 283 | 0.0 | 0.0 | 0.00 | 0.01 | 0.00 | 83 | 1025.9 |
| 20260902001052 | 57 | 283 | 0.0 | 0.0 | 0.00 | 0.01 | 0.00 | 83 | 1025.9 |
| 20260902000553 | 57 | 283 | 0.0 | 0.0 | 0.00 | 0.01 | 0.00 | 83 | 1026.0 |
| 20260902000113 | 57 | 283 | 0.0 | 0.0 | 0.00 | 0.01 | 0.00 | 82 | 1026.0 |
| 20260901235554 | 57 | 283 | 0.0 | 0.0 | 0.00 | 0.01 | 0.00 | 82 | 1026.0 |
| 20260901235052 | 57 | 283 | 0.0 | 0.0 | 0.00 | 0.01 | 0.00 | 82 | 1026.0 |
| 20260901234552 | 57 | 283 | 0.0 | 0.0 | 0.00 | 0.01 | 0.00 | 82 | 1026.0 |
| 20260901234051 | 57 | 283 | 0.0 | 0.0 | 0.00 | 0.01 | 0.00 | 82 | 1026.0 |
| 20260901233551 | 57 | 283 | 0.0 | 0.0 | 0.00 | 0.01 | 0.00 | 82 | 1026.0 |
| 20260901233051 | 57 | 283 | 0.0 | 0.0 | 0.00 | 0.01 | 0.00 | 82 | 1026.1 |
| 20260901232550 | 57 | 283 | 0.0 | 0.0 | 0.00 | 0.01 | 0.00 | 82 | 1026.0 |
| 20260901232050 | 57 | 283 | 0.0 | 0.0 | 0.00 | 0.01 | 0.00 | 82 | 1026.0 |
| 20260901231551 | 57 | 283 | 0.0 | 0.0 | 0.00 | 0.01 | 0.00 | 81 | 1026.0 |
| 20260901231048 | 57 | 283 | 0.0 | 0.0 | 0.00 | 0.01 | 0.00 | 81 | 1026.0 |
| 20260901230547 | 58 | 283 | 0.0 | 0.0 | 0.00 | 0.01 | 0.00 | 81 | 1025.9 |
| 20260901230057 | 58 | 283 | 0.0 | 0.0 | 0.00 | 0.01 | 0.00 | 81 | 1025.9 |
| 20260901225545 | 58 | 283 | 0.0 | 0.0 | 0.00 | 0.01 | 0.00 | 81 | 1025.9 |
| 20260901225045 | 58 | 283 | 0.0 | 0.0 | 0.00 | 0.01 | 0.00 | 80 | 1025.9 |
| 20260901224545 | 58 | 283 | 0.0 | 0.0 | 0.00 | 0.01 | 0.00 | 80 | 1025.9 |
| 20260901224047 | 59 | 283 | 0.0 | 0.0 | 0.00 | 0.01 | 0.00 | 79 | 1025.8 |
| 20260901223545 | 59 | 283 | 0.0 | 0.0 | 0.00 | 0.01 | 0.00 | 80 | 1025.8 |
| 20260901223045 | 58 | 283 | 0.0 | 0.0 | 0.00 | 0.01 | 0.00 | 80 | 1025.8 |
| 20260901222544 | 58 | 283 | 0.0 | 0.0 | 0.00 | 0.01 | 0.00 | 81 | 1025.8 |
| 20260901222044 | 58 | 283 | 0.0 | 0.0 | 0.00 | 0.01 | 0.00 | 81 | 1025.7 |
| 20260901221543 | 58 | 283 | 0.0 | 0.0 | 0.00 | 0.01 | 0.00 | 81 | 1025.7 |
| 20260901221043 | 59 | 283 | 0.0 | 0.0 | 0.00 | 0.01 | 0.00 | 81 | 1025.8 |
| 20260901220542 | 59 | 283 | 0.0 | 0.0 | 0.00 | 0.01 | 0.00 | 81 | 1025.8 |
| 20260901220109 | 59 | 283 | 0.0 | 0.0 | 0.00 | 0.01 | 0.00 | 79 | 1025.8 |
| 20260901215540 | 59 | 283 | 0.0 | 0.0 | 0.00 | 0.01 | 0.01 | 79 | 1025.8 |
| 20260901215041 | 60 | 283 | 0.0 | 0.0 | 0.00 | 0.01 | 0.01 | 78 | 1025.8 |
| 20260901214540 | 60 | 283 | 0.0 | 0.0 | 0.00 | 0.01 | 0.01 | 78 | 1025.7 |
| 20260901214039 | 60 | 283 | 0.0 | 0.0 | 0.00 | 0.01 | 0.01 | 78 | 1025.8 |
| 20260901213540 | 60 | 283 | 0.0 | 0.0 | 0.00 | 0.01 | 0.01 | 77 | 1025.8 |
| 20260901213105 | 61 | 283 | 0.0 | 0.0 | 0.00 | 0.01 | 0.01 | 77 | 1025.8 |
| 20260901212539 | 61 | 283 | 0.0 | 0.0 | 0.00 | 0.01 | 0.01 | 76 | 1025.8 |
| 20260901212038 | 61 | 283 | 0.0 | 0.0 | 0.00 | 0.01 | 0.01 | 76 | 1025.8 |
| 20260901211539 | 61 | 283 | 0.0 | 0.0 | 0.00 | 0.01 | 0.01 | 76 | 1025.8 |
| 20260901211039 | 61 | 283 | 0.0 | 0.0 | 0.00 | 0.01 | 0.01 | 75 | 1025.9 |
| 20260901210539 | 61 | 283 | 0.0 | 0.0 | 0.00 | 0.01 | 0.01 | 74 | 1025.9 |
| 20260901210047 | 62 | 283 | 0.0 | 0.0 | 0.00 | 0.01 | 0.01 | 74 | 1025.8 |
| 20260901205538 | 62 | 283 | 0.0 | 0.0 | 0.00 | 0.01 | 0.01 | 74 | 1025.8 |
| 20260901205042 | 62 | 283 | 0.0 | 0.0 | 0.00 | 0.01 | 0.01 | 74 | 1025.9 |
| 20260901204540 | 62 | 283 | 0.0 | 0.0 | 0.00 | 0.01 | 0.01 | 74 | 1025.9 |
| 20260901204039 | 62 | 283 | 0.0 | 0.0 | 0.00 | 0.01 | 0.01 | 74 | 1025.9 |
| 20260901203538 | 62 | 283 | 0.0 | 0.0 | 0.00 | 0.01 | 0.01 | 74 | 1025.9 |
| 20260901203053 | 62 | 283 | 0.0 | 0.0 | 0.00 | 0.01 | 0.01 | 74 | 1025.9 |
| 20260901202537 | 62 | 283 | 0.0 | 0.0 | 0.00 | 0.01 | 0.01 | 73 | 1025.9 |
| 20260901202044 | 63 | 283 | 0.0 | 0.0 | 0.00 | 0.01 | 0.01 | 74 | 1025.8 |
| 20260901201537 | 63 | 283 | 0.0 | 0.0 | 0.00 | 0.01 | 0.01 | 75 | 1025.7 |
| 20260901201038 | 63 | 283 | 0.0 | 0.0 | 0.00 | 0.01 | 0.01 | 74 | 1025.8 |
| 20260901200537 | 63 | 283 | 0.0 | 0.0 | 0.00 | 0.01 | 0.01 | 74 | 1025.7 |
| 20260901200043 | 63 | 283 | 0.0 | 0.0 | 0.00 | 0.01 | 0.01 | 72 | 1025.7 |
| 20260901195537 | 64 | 283 | 0.0 | 0.0 | 0.00 | 0.01 | 0.01 | 73 | 1025.6 |
| 20260901195041 | 64 | 283 | 0.0 | 2.0 | 0.00 | 0.01 | 0.01 | 73 | 1025.6 |
| 20260901194542 | 64 | 283 | 0.0 | 2.0 | 0.00 | 0.01 | 0.01 | 73 | 1025.6 |
| 20260901194036 | 65 | 283 | 0.0 | 0.0 | 0.00 | 0.01 | 0.01 | 71 | 1025.6 |
| 20260901193536 | 65 | 283 | 0.0 | 0.0 | 0.00 | 0.01 | 0.01 | 65 | 1025.6 |
| 20260901193046 | 66 | 283 | 0.0 | 0.0 | 0.00 | 0.01 | 0.01 | 64 | 1025.6 |
| 20260901192537 | 66 | 283 | 0.0 | 1.0 | 0.00 | 0.01 | 0.01 | 61 | 1025.6 |
| 20260901192043 | 66 | 283 | 0.0 | 2.0 | 0.00 | 0.01 | 0.01 | 61 | 1025.5 |
| 20260901191538 | 66 | 283 | 0.0 | 2.0 | 0.00 | 0.01 | 0.01 | 61 | 1025.5 |
| 20260901191035 | 66 | 283 | 0.0 | 2.0 | 0.00 | 0.01 | 0.01 | 61 | 1025.5 |
| 20260901190535 | 66 | 283 | 0.0 | 2.0 | 0.00 | 0.01 | 0.01 | 62 | 1025.4 |
| 20260901190035 | 66 | 283 | 0.0 | 0.0 | 0.00 | 0.01 | 0.01 | 62 | 1025.4 |
| 20260901185536 | 66 | 283 | 0.0 | 0.0 | 0.00 | 0.07 | 0.01 | 61 | 1025.4 |
| 20260901185035 | 67 | 283 | 0.0 | 0.0 | 0.00 | 0.07 | 0.01 | 60 | 1025.3 |
| 20260901184535 | 67 | 283 | 0.0 | 1.0 | 0.00 | 0.07 | 0.01 | 58 | 1025.2 |
| 20260901184034 | 67 | 283 | 0.0 | 1.0 | 0.00 | 0.07 | 0.01 | 58 | 1025.2 |
| 20260901183533 | 67 | 283 | 0.0 | 0.0 | 0.00 | 0.07 | 0.01 | 57 | 1025.2 |
| 20260901183043 | 68 | 283 | 0.0 | 2.0 | 0.00 | 0.07 | 0.01 | 58 | 1025.1 |
| 20260901182533 | 68 | 283 | 0.0 | 2.0 | 0.00 | 0.07 | 0.01 | 57 | 1025.0 |
| 20260901182034 | 68 | 283 | 0.0 | 2.0 | 0.00 | 0.07 | 0.01 | 57 | 1025.0 |
| 20260901181534 | 68 | 283 | 0.0 | 2.0 | 0.00 | 0.07 | 0.01 | 57 | 1025.0 |
| 20260901181035 | 68 | 283 | 0.0 | 1.0 | 0.00 | 0.07 | 0.01 | 57 | 1024.9 |
| 20260901180533 | 68 | 283 | 0.0 | 2.0 | 0.00 | 0.07 | 0.01 | 56 | 1024.9 |
| 20260901180134 | 68 | 283 | 0.0 | 2.0 | 0.00 | 0.07 | 0.01 | 56 | 1024.8 |
| 20260901175534 | 69 | 282 | 0.0 | 3.0 | 0.00 | 0.19 | 0.01 | 55 | 1024.8 |
| 20260901175032 | 69 | 282 | 0.0 | 3.0 | 0.00 | 0.19 | 0.01 | 55 | 1024.7 |
| 20260901174533 | 69 | 282 | 1.0 | 5.0 | 0.00 | 0.19 | 0.01 | 55 | 1024.7 |
| 20260901174032 | 69 | 282 | 2.0 | 6.0 | 0.00 | 0.19 | 0.01 | 55 | 1024.6 |
| 20260901173533 | 69 | 281 | 2.0 | 5.0 | 0.00 | 0.19 | 0.01 | 56 | 1024.6 |
| 20260901173048 | 69 | 314 | 2.0 | 6.0 | 0.00 | 0.19 | 0.01 | 55 | 1024.6 |
| 20260901172532 | 69 | 274 | 3.0 | 8.0 | 0.00 | 0.19 | 0.01 | 55 | 1024.7 |
| 20260901172031 | 69 | 253 | 4.0 | 8.0 | 0.00 | 0.19 | 0.01 | 54 | 1024.7 |
| 20260901171533 | 69 | 304 | 3.0 | 6.0 | 0.00 | 0.19 | 0.01 | 55 | 1024.7 |
| 20260901171030 | 69 | 282 | 2.0 | 8.0 | 0.00 | 0.19 | 0.01 | 55 | 1024.7 |
| 20260901170530 | 69 | 278 | 3.0 | 12.0 | 0.00 | 0.19 | 0.01 | 54 | 1024.6 |
| 20260901170030 | 70 | 304 | 7.0 | 12.0 | 0.00 | 0.19 | 0.01 | 54 | 1024.6 |
| 20260901165530 | 70 | 314 | 5.0 | 9.0 | 0.00 | 0.31 | 0.01 | 54 | 1024.6 |
| 20260901165030 | 69 | 289 | 4.0 | 9.0 | 0.00 | 0.31 | 0.01 | 56 | 1024.6 |
| 20260901164530 | 70 | 298 | 4.0 | 9.0 | 0.00 | 0.31 | 0.01 | 54 | 1024.5 |
| 20260901164030 | 69 | 314 | 2.0 | 8.0 | 0.00 | 0.31 | 0.01 | 55 | 1024.5 |
| 20260901163529 | 69 | 261 | 3.0 | 8.0 | 0.00 | 0.31 | 0.01 | 54 | 1024.5 |
| 20260901163032 | 69 | 277 | 4.0 | 8.0 | 0.00 | 0.31 | 0.01 | 54 | 1024.5 |
| 20260901162529 | 70 | 281 | 4.0 | 8.0 | 0.00 | 0.31 | 0.01 | 55 | 1024.5 |
| 20260901162028 | 70 | 285 | 4.0 | 8.0 | 0.00 | 0.31 | 0.01 | 54 | 1024.4 |
| 20260901161534 | 70 | 270 | 3.0 | 8.0 | 0.00 | 0.31 | 0.01 | 54 | 1024.4 |
| 20260901161030 | 69 | 274 | 4.0 | 8.0 | 0.00 | 0.31 | 0.01 | 54 | 1024.5 |
| 20260901160527 | 69 | 291 | 3.0 | 8.0 | 0.00 | 0.31 | 0.01 | 55 | 1024.4 |
| 20260901160031 | 69 | 293 | 1.0 | 8.0 | 0.00 | 0.31 | 0.01 | 56 | 1024.5 |
| 20260901155528 | 69 | 295 | 2.0 | 8.0 | 0.00 | 0.41 | 0.01 | 56 | 1024.4 |
| 20260901155030 | 69 | 264 | 1.0 | 4.0 | 0.00 | 0.41 | 0.01 | 58 | 1024.4 |
| 20260901154527 | 69 | 269 | 1.0 | 5.0 | 0.00 | 0.41 | 0.01 | 56 | 1024.5 |
| 20260901154028 | 69 | 274 | 1.0 | 4.0 | 0.00 | 0.41 | 0.01 | 58 | 1024.4 |
| 20260901153527 | 69 | 270 | 0.0 | 3.0 | 0.00 | 0.41 | 0.01 | 56 | 1024.5 |
| 20260901153032 | 69 | 264 | 0.0 | 6.0 | 0.00 | 0.41 | 0.01 | 56 | 1024.5 |
| 20260901152526 | 70 | 266 | 0.0 | 6.0 | 0.00 | 0.41 | 0.01 | 56 | 1024.5 |
| 20260901152128 | 70 | 276 | 1.0 | 4.0 | 0.00 | 0.41 | 0.01 | 56 | 1024.5 |
| 20260901151526 | 70 | 287 | 2.0 | 8.0 | 0.00 | 0.41 | 0.01 | 57 | 1024.5 |
| 20260901151026 | 70 | 332 | 2.0 | 8.0 | 0.00 | 0.41 | 0.01 | 56 | 1024.5 |
| 20260901150525 | 70 | 251 | 1.0 | 6.0 | 0.00 | 0.41 | 0.01 | 55 | 1024.5 |
| 20260901150026 | 70 | 299 | 3.0 | 8.0 | 0.00 | 0.41 | 0.01 | 55 | 1024.5 |
| 20260901145526 | 70 | 299 | 4.0 | 13.0 | 0.00 | 0.41 | 0.01 | 54 | 1024.5 |
| 20260901145025 | 70 | 276 | 6.0 | 14.0 | 0.00 | 0.41 | 0.01 | 53 | 1024.5 |
| 20260901144525 | 71 | 314 | 5.0 | 13.0 | 0.00 | 0.41 | 0.01 | 54 | 1024.5 |
| 20260901144024 | 71 | 314 | 5.0 | 10.0 | 0.00 | 0.41 | 0.01 | 54 | 1024.6 |
| 20260901143525 | 71 | 278 | 3.0 | 9.0 | 0.00 | 0.41 | 0.01 | 54 | 1024.5 |
| 20260901143024 | 70 | 286 | 4.0 | 9.0 | 0.00 | 0.41 | 0.01 | 55 | 1024.6 |
| 20260901142524 | 70 | 299 | 3.0 | 9.0 | 0.00 | 0.41 | 0.01 | 54 | 1024.6 |
| 20260901142023 | 70 | 299 | 2.0 | 11.0 | 0.00 | 0.41 | 0.01 | 54 | 1024.5 |
| 20260901141524 | 71 | 304 | 5.0 | 11.0 | 0.00 | 0.41 | 0.01 | 53 | 1024.5 |
| 20260901141030 | 71 | 275 | 4.0 | 9.0 | 0.00 | 0.41 | 0.01 | 54 | 1024.5 |
| 20260901140523 | 71 | 314 | 5.0 | 11.0 | 0.00 | 0.41 | 0.01 | 53 | 1024.5 |
| 20260901140038 | 71 | 283 | 5.0 | 11.0 | 0.00 | 0.41 | 0.01 | 54 | 1024.5 |
| 20260901135523 | 71 | 293 | 5.0 | 10.0 | 0.00 | 0.41 | 0.01 | 54 | 1024.4 |
| 20260901135022 | 71 | 314 | 4.0 | 9.0 | 0.00 | 0.41 | 0.01 | 53 | 1024.4 |
| 20260901134524 | 71 | 287 | 4.0 | 12.0 | 0.00 | 0.41 | 0.01 | 54 | 1024.5 |
| 20260901134023 | 71 | 309 | 6.0 | 14.0 | 0.00 | 0.41 | 0.01 | 52 | 1024.5 |
| 20260901133521 | 71 | 293 | 8.0 | 12.0 | 0.00 | 0.41 | 0.01 | 51 | 1024.6 |
| 20260901133020 | 71 | 282 | 7.0 | 12.0 | 0.00 | 0.41 | 0.01 | 53 | 1024.6 |
| 20260901132520 | 71 | 293 | 4.0 | 10.0 | 0.00 | 0.41 | 0.01 | 54 | 1024.7 |
| 20260901132020 | 71 | 304 | 3.0 | 9.0 | 0.00 | 0.41 | 0.01 | 54 | 1024.7 |
| 20260901131518 | 70 | 304 | 1.0 | 11.0 | 0.00 | 0.41 | 0.01 | 56 | 1024.8 |
| 20260901131019 | 70 | 273 | 4.0 | 11.0 | 0.00 | 0.41 | 0.01 | 54 | 1024.9 |
| 20260901130520 | 71 | 304 | 6.0 | 10.0 | 0.00 | 0.41 | 0.01 | 54 | 1025.0 |
| 20260901130034 | 71 | 270 | 1.0 | 8.0 | 0.00 | 0.41 | 0.01 | 57 | 1025.0 |
| 20260901125517 | 71 | 314 | 2.0 | 8.0 | 0.00 | 0.41 | 0.01 | 53 | 1025.0 |
| 20260901125017 | 72 | 304 | 1.0 | 9.0 | 0.00 | 0.41 | 0.01 | 56 | 1025.0 |
| 20260901124517 | 72 | 282 | 2.0 | 6.0 | 0.00 | 0.41 | 0.01 | 58 | 1025.0 |
| 20260901124015 | 71 | 304 | 2.0 | 7.0 | 0.00 | 0.41 | 0.01 | 56 | 1024.9 |
| 20260901123515 | 71 | 255 | 3.0 | 8.0 | 0.00 | 0.41 | 0.01 | 57 | 1025.0 |
| 20260901123020 | 71 | 320 | 4.0 | 8.0 | 0.00 | 0.41 | 0.01 | 57 | 1024.9 |
| 20260901122514 | 71 | 321 | 3.0 | 8.0 | 0.00 | 0.41 | 0.01 | 56 | 1025.0 |
| 20260901122013 | 70 | 322 | 5.0 | 10.0 | 0.00 | 0.41 | 0.01 | 56 | 1024.9 |
| 20260901121514 | 70 | 264 | 5.0 | 10.0 | 0.00 | 0.41 | 0.01 | 57 | 1025.0 |
| 20260901121015 | 70 | 295 | 0.0 | 12.0 | 0.00 | 0.41 | 0.01 | 57 | 1025.0 |
| 20260901120513 | 70 | 304 | 9.0 | 12.0 | 0.00 | 0.41 | 0.01 | 55 | 1025.0 |
| 20260901120020 | 71 | 309 | 2.0 | 8.0 | 0.00 | 0.41 | 0.01 | 55 | 1025.1 |
| 20260901115511 | 71 | 293 | 4.0 | 8.0 | 0.00 | 0.41 | 0.01 | 55 | 1025.1 |
| 20260901115012 | 71 | 318 | 3.0 | 9.0 | 0.00 | 0.41 | 0.01 | 56 | 1025.2 |
| 20260901114510 | 71 | 282 | 4.0 | 10.0 | 0.00 | 0.41 | 0.01 | 53 | 1025.2 |
| 20260901114008 | 71 | 309 | 4.0 | 10.0 | 0.00 | 0.41 | 0.01 | 55 | 1025.2 |
| 20260901113508 | 71 | 304 | 6.0 | 10.0 | 0.00 | 0.41 | 0.01 | 56 | 1025.2 |
| 20260901113008 | 71 | 328 | 5.0 | 9.0 | 0.00 | 0.41 | 0.01 | 59 | 1025.3 |
| 20260901112506 | 70 | 320 | 4.0 | 9.0 | 0.00 | 0.41 | 0.01 | 56 | 1025.3 |
| 20260901112006 | 70 | 265 | 5.0 | 10.0 | 0.00 | 0.41 | 0.01 | 57 | 1025.3 |
| 20260901111505 | 70 | 309 | 5.0 | 8.0 | 0.00 | 0.41 | 0.01 | 57 | 1025.3 |
| 20260901111004 | 70 | 314 | 4.0 | 9.0 | 0.00 | 0.41 | 0.01 | 58 | 1025.3 |
| 20260901110507 | 70 | 304 | 4.0 | 10.0 | 0.00 | 0.41 | 0.01 | 60 | 1025.4 |
| 20260901110003 | 70 | 275 | 0.0 | 10.0 | 0.00 | 0.41 | 0.01 | 58 | 1025.4 |
| 20260901105502 | 70 | 304 | 4.0 | 7.0 | 0.00 | 0.41 | 0.01 | 63 | 1025.3 |
| 20260901105104 | 69 | 309 | 1.0 | 6.0 | 0.00 | 0.41 | 0.01 | 60 | 1025.4 |
| 20260901104559 | 69 | 331 | 0.0 | 4.0 | 0.00 | 0.41 | 0.01 | 68 | 1025.4 |
| 20260901104058 | 69 | 332 | 0.0 | 4.0 | 0.00 | 0.41 | 0.01 | 63 | 1025.4 |
| 20260901103555 | 68 | 332 | 0.0 | 4.0 | 0.00 | 0.41 | 0.01 | 63 | 1025.4 |
| 20260901103055 | 68 | 304 | 0.0 | 5.0 | 0.00 | 0.41 | 0.01 | 64 | 1025.5 |
| 20260901102554 | 68 | 304 | 4.0 | 5.0 | 0.00 | 0.41 | 0.01 | 66 | 1025.5 |
| 20260901102053 | 67 | 297 | 1.0 | 5.0 | 0.00 | 0.41 | 0.01 | 68 | 1025.5 |
| 20260901101551 | 67 | 296 | 3.0 | 6.0 | 0.00 | 0.41 | 0.01 | 72 | 1025.6 |
| 20260901101051 | 66 | 320 | 3.0 | 6.0 | 0.00 | 0.41 | 0.01 | 72 | 1025.6 |
| 20260901100549 | 66 | 309 | 3.0 | 8.0 | 0.00 | 0.41 | 0.01 | 75 | 1025.7 |
| 20260901100048 | 66 | 299 | 4.0 | 8.0 | 0.00 | 0.41 | 0.01 | 73 | 1025.7 |
| 20260901095547 | 65 | 309 | 5.0 | 8.0 | 0.00 | 0.41 | 0.01 | 74 | 1025.7 |
| 20260901095046 | 65 | 304 | 5.0 | 9.0 | 0.00 | 0.41 | 0.01 | 74 | 1025.8 |
| 20260901094550 | 65 | 304 | 4.0 | 9.0 | 0.00 | 0.41 | 0.01 | 74 | 1025.8 |
| 20260901094044 | 65 | 309 | 3.0 | 6.0 | 0.00 | 0.41 | 0.01 | 76 | 1025.9 |
| 20260901093545 | 65 | 304 | 3.0 | 5.0 | 0.00 | 0.41 | 0.01 | 76 | 1025.9 |
| 20260901093043 | 65 | 309 | 3.0 | 6.0 | 0.00 | 0.41 | 0.01 | 76 | 1025.9 |
| 20260901092543 | 65 | 309 | 2.0 | 6.0 | 0.00 | 0.41 | 0.01 | 76 | 1026.0 |
| 20260901092043 | 65 | 304 | 2.0 | 4.0 | 0.00 | 0.41 | 0.01 | 77 | 1026.0 |
| 20260901091541 | 65 | 324 | 1.0 | 3.0 | 0.00 | 0.41 | 0.01 | 78 | 1026.1 |
| 20260901091040 | 64 | 324 | 0.0 | 1.0 | 0.00 | 0.41 | 0.01 | 76 | 1026.0 |
| 20260901090541 | 64 | 324 | 0.0 | 2.0 | 0.00 | 0.41 | 0.01 | 80 | 1026.1 |
| 20260901090037 | 64 | 324 | 0.0 | 3.0 | 0.00 | 0.41 | 0.01 | 79 | 1026.1 |
| 20260901085536 | 63 | 324 | 2.0 | 3.0 | 0.00 | 0.41 | 0.01 | 79 | 1026.1 |
| 20260901085035 | 63 | 90 | 0.0 | 3.0 | 0.00 | 0.41 | 0.01 | 82 | 1026.2 |
| 20260901084534 | 63 | 96 | 0.0 | 3.0 | 0.00 | 0.41 | 0.01 | 80 | 1026.2 |
| 20260901084033 | 62 | 309 | 0.0 | 2.0 | 0.00 | 0.41 | 0.01 | 84 | 1026.2 |
| 20260901083531 | 61 | 309 | 0.0 | 3.0 | 0.00 | 0.41 | 0.01 | 84 | 1026.2 |
| 20260901083030 | 61 | 309 | 1.0 | 4.0 | 0.00 | 0.41 | 0.01 | 84 | 1026.3 |